Погода в Папе

Венгрия     47°19′45″N   17°28′07″E
темп.,
°C
ветер,
м/с
пор.,
м/с
влажн.,
%
обл.,
%
осадки,
мм/ч
давл.,
гПа
погр.,
м
12 мая, ср
ср1223:00+17юв48811 0.0 1007117
02:00+15юв47915 0.4 1006105
05:00+14ю369482 0.1 1006107
08:00+16сз359194 0.1 1007369
11:00+15ссз1294100 3.6 1007171
14:00+15с338969 9.3 1008521
17:00+14ссз568699 0.1 1007444
20:00+12ссв498267 0.1 1006392
13 мая, чт
чт1323:00+11с4127783 0.0 1007548
02:00+11с3775100 0.0 1006384
05:00+11з2686100 0.1 1005237
08:00+11юз2495100 0.4 1005190
11:00+12ююз1184100 0.1 1005255
14:00+13с3478100 0.6 1004543
17:00+12с5107898 0.5 1005615
20:00+11ссв388081 0.5 1006296
14 мая, пт
пт1423:00+9ссз1386100 0.0 100696
02:00+9юз2389100 0.0 100895
05:00+9юз1187100 0.0 100823
08:00+11з1181100 0.0 1009243
11:00+15всв2269100 0.6 1009782
14:00+13юв248391 1.0 100998
17:00+17юв236396 0.3 10081080
20:00+13юв3384100 1.6 100845
15 мая, сб
сб1523:00+12ююв3796100 2.8 1009184
02:00+11вюв228998 4.9 100921
05:00+10вюв009149 0.0 100910
08:00+12ссз0189100 0.0 1010186
11:00+15сз2179100 0.8 1009515
14:00+16с337686 2.8 1008946
17:00+16с337363 1.1 1008882
20:00+13с228598 1.9 100826
16 мая, вс
вс1623:00+10с348867 0.0 100967
02:00+9ссв2291100 0.0 101024
05:00+8ссв2290100 0.0 100916
08:00+12ссз377987 0.0 1010440
11:00+16сз56658 0.0 10101082
14:00+18сз565791 0.1 10081712
17:00+18с365740 0.0 10081866
20:00+14с22735 0.1 100911